1508810400.34,22094,8.88,73080.3,-5.57,-6.89,-6.93,0,*51
1508810401.58,22095,8.88,73078.5,-5.57,-6.89,-6.93,0,*50
1508810402.82,22096,8.88,73068.0,-5.57,-6.81,-6.81,0,*58
1508810404.01,22097,8.88,73066.0,-5.55,-6.85,-6.85,0,*5B
1508810405.24,22098,8.88,73058.3,-5.57,-6.81,-6.81,0,*56
1508810406.46,22099,8.88,73058.8,-5.57,-6.89,-6.89,0,*57
1508810407.71,22100,8.88,73062.0,-5.57,-6.89,-7.01,0,*57
1508810408.96,22101,8.88,73060.8,-5.57,-6.81,-6.93,0,*54
1508810410.19,22102,8.88,73064.8,-5.57,-6.81,-6.81,0,*54
1508810411.41,22103,8.88,73060.5,-5.57,-6.69,-6.69,0,*55
1508810412.65,22104,8.81,73072.8,-5.57,-6.63,-6.77,0,*57
1508810413.87,22105,8.88,73068.3,-5.57,-6.69,-6.77,0,*5C
1508810415.09,22106,8.88,73064.5,-5.57,-6.77,-6.77,0,*50
1508810416.33,22107,8.88,73066.8,-5.57,-6.63,-6.77,0,*54
1508810417.56,22108,8.88,73070.0,-5.57,-6.55,-6.55,0,*5E
1508810418.78,22109,8.88,73082.5,-5.57,-6.55,-6.51,0,*5B
1508810420.03,22110,8.88,73102.3,-5.57,-6.63,-6.55,0,*52
1508810421.23,22111,8.88,73090.8,-5.55,-6.55,-6.55,0,*54
1508810422.45,22112,8.88,73056.8,-5.57,-6.55,-6.55,0,*55
1508810423.68,22113,8.88,73034.5,-5.57,-6.43,-6.43,0,*54
1508810424.9,22114,8.88,73000.5,-5.57,-6.43,-6.43,0,*53
1508810426.1,22115,8.88,73024.3,-5.55,-6.39,-6.35,0,*5C
1508810427.32,22116,8.81,73016.8,-5.55,-6.23,-6.31,0,*50
1508810428.54,22117,8.88,73022.3,-5.55,-6.23,-6.13,0,*51
1508810429.73,22118,8.88,73048.3,-5.55,-6.05,-6.05,0,*5D
1508810430.92,22119,8.88,73056.8,-5.55,-6.05,-6.09,0,*50
1508810432.14,22120,8.88,73060.0,-5.57,-6.09,-6.01,0,*5C
1508810433.33,22121,8.88,73070.5,-5.55,-5.97,-5.97,0,*57
1508810434.53,22122,8.88,73086.5,-5.55,-6.09,-6.09,0,*54
1508810435.73,22123,8.88,73086.5,-5.55,-6.35,-6.31,0,*51
1508810436.94,22124,8.88,73094.3,-5.55,-6.35,-6.35,0,*52
1508810438.16,22125,8.88,73086.3,-5.57,-6.39,-6.43,0,*5C
1508810439.35,22126,8.81,73086.0,-5.55,-6.47,-6.47,0,*50
1508810440.55,22127,8.88,73082.8,-5.55,-6.47,-6.51,0,*56
1508810441.75,22128,8.88,73086.5,-5.55,-6.47,-6.51,0,*59
1508810442.94,22129,8.88,73084.8,-5.55,-6.47,-6.51,0,*58
1508810444.14,22130,8.88,73108.5,-5.55,-6.39,-6.39,0,*57
1508810445.33,22131,8.88,73090.3,-5.55,-6.47,-6.47,0,*56
1508810446.52,22132,8.88,73060.5,-5.55,-6.39,-6.39,0,*55
1508810447.72,22133,8.88,73110.5,-5.55,-6.47,-6.51,0,*53
1508810448.94,22134,8.88,73080.0,-5.55,-6.59,-6.63,0,*5A
1508810450.17,22135,8.88,73070.3,-5.53,-6.47,-6.51,0,*53
1508810451.4,22136,8.88,73070.3,-5.53,-6.51,-6.59,0,*5F
1508810452.63,22137,8.88,73076.8,-5.53,-6.47,-6.47,0,*56
1508810453.85,22138,8.81,73092.5,-5.53,-6.39,-6.39,0,*59
1508810455.07,22139,8.81,73090.0,-5.53,-6.39,-6.39,0,*58
1508810456.3,22140,8.88,73088.5,-5.53,-6.39,-6.35,0,*5A
1508810457.52,22141,8.88,73098.5,-5.53,-6.47,-6.39,0,*5E
1508810458.74,22142,8.88,73090.8,-5.53,-6.47,-6.39,0,*5D
1508810459.93,22143,8.88,73058.5,-5.55,-6.39,-6.39,0,*53
1508810461.13,22144,8.88,73094.0,-5.55,-6.51,-6.47,0,*53
1508810462.33,22145,8.81,73088.8,-5.55,-6.39,-6.39,0,*55
1508810463.52,22146,8.88,73086.5,-5.55,-6.47,-6.47,0,*56
1508810464.72,22147,8.88,73096.5,-5.55,-6.59,-6.51,0,*5F
1508810465.92,22148,8.81,73122.8,-5.55,-6.47,-6.47,0,*58
1508810467.11,22149,8.88,73086.0,-5.55,-6.39,-6.47,0,*50
1508810468.31,22150,8.88,73074.5,-5.55,-6.47,-6.47,0,*51
1508810469.51,22151,8.88,73088.5,-5.55,-6.51,-6.59,0,*58
1508810470.71,22152,8.88,73072.3,-5.55,-6.73,-6.77,0,*57
1508810471.9,22153,8.88,73082.3,-5.55,-6.73,-6.77,0,*56
1508810473.14,22154,8.88,73076.8,-5.55,-6.63,-6.63,0,*55
1508810474.38,22155,8.88,73048.8,-5.55,-6.63,-6.63,0,*54
1508810475.58,22156,8.88,73094.8,-5.55,-6.73,-6.77,0,*53
1508810476.78,22157,8.88,73104.5,-5.55,-6.77,-6.77,0,*56
1508810477.97,22158,8.81,73080.5,-5.55,-6.85,-6.85,0,*59
1508810479.19,22159,8.81,73088.8,-5.57,-6.89,-6.85,0,*56
1508810480.39,22160,8.88,73066.8,-5.55,-6.77,-6.77,0,*52
1508810481.62,22161,8.88,73070.5,-5.57,-6.81,-6.81,0,*51
1508810482.82,22162,8.88,73076.3,-5.55,-6.47,-6.51,0,*57
1508810484.04,22163,8.88,73084.0,-5.57,-6.55,-6.43,0,*54
1508810485.24,22164,8.88,73088.8,-5.55,-6.39,-6.39,0,*56
1508810486.46,22165,8.88,73082.5,-5.57,-6.43,-6.35,0,*54
1508810487.66,22166,8.88,73094.0,-5.55,-6.39,-6.35,0,*58
1508810488.86,22167,8.88,73098.8,-5.55,-6.35,-6.35,0,*55
1508810490.05,22168,8.88,73086.8,-5.55,-6.39,-6.43,0,*57
1508810491.28,22169,8.88,73076.5,-5.57,-6.51,-6.51,0,*59
1508810492.48,22170,8.88,73066.0,-5.55,-6.39,-6.47,0,*5A
1508810493.67,22171,8.88,73076.8,-5.55,-6.39,-6.39,0,*52
1508810494.87,22172,8.88,73078.5,-5.55,-6.39,-6.47,0,*58
1508810496.07,22173,8.81,73082.8,-5.55,-6.51,-6.47,0,*57
1508810497.28,22174,8.88,73094.5,-5.55,-6.63,-6.73,0,*56
1508810498.5,22175,8.81,73082.5,-5.57,-6.69,-6.69,0,*54
1508810499.71,22176,8.81,73064.8,-5.55,-6.63,-6.59,0,*5C
1508810500.93,22177,8.88,73082.3,-5.55,-6.63,-6.73,0,*55
1508810502.17,22178,8.88,73070.3,-5.57,-6.69,-6.63,0,*53
1508810503.37,22179,8.88,73088.3,-5.55,-6.59,-6.51,0,*52
1508810504.57,22180,8.88,73078.3,-5.55,-6.59,-6.59,0,*5C
1508810505.77,22181,8.88,73098.5,-5.55,-6.51,-6.51,0,*5D
1508810506.98,22182,8.88,73088.5,-5.55,-6.51,-6.51,0,*5E
1508810508.17,22183,8.81,73094.0,-5.55,-6.73,-6.59,0,*57
1508810509.4,22184,8.81,73090.0,-5.55,-6.73,-6.63,0,*59
1508810510.59,22185,8.88,73076.8,-5.55,-6.77,-6.77,0,*59
1508810511.79,22186,8.81,73094.5,-5.55,-6.77,-6.77,0,*5A
1508810513.02,22187,8.88,73102.3,-5.57,-6.77,-6.77,0,*59
1508810514.22,22188,8.88,73096.8,-5.55,-6.59,-6.51,0,*5C
1508810515.41,22189,8.88,73094.0,-5.55,-6.39,-6.39,0,*55
1508810516.63,22190,8.88,73094.8,-5.57,-6.39,-6.43,0,*52
1508810517.83,22191,8.88,73098.8,-5.55,-6.35,-6.35,0,*5C
1508810519.03,22192,8.88,73098.5,-5.55,-6.35,-6.35,0,*5F
1508810520.24,22193,8.81,73092.8,-5.55,-6.35,-6.35,0,*5E
1508810521.46,22194,8.88,73086.3,-5.57,-6.39,-6.43,0,*56
1508810522.65,22195,8.88,73092.0,-5.55,-6.39,-6.39,0,*58
1508810523.85,22196,8.81,73086.3,-5.55,-6.39,-6.47,0,*52
1508810525.04,22197,8.88,73092.3,-5.55,-6.39,-6.39,0,*5A
1508810526.23,22198,8.88,73086.5,-5.55,-6.47,-6.39,0,*5C
1508810527.45,22199,8.88,73078.8,-5.57,-6.43,-6.43,0,*56
1508810528.65,22200,8.81,73078.8,-5.55,-6.39,-6.39,0,*57
1508810529.84,22201,8.88,73076.8,-5.55,-6.47,-6.47,0,*56
1508810531.07,22202,8.88,73070.8,-5.57,-6.51,-6.43,0,*54
1508810532.26,22203,8.81,73064.5,-5.55,-6.39,-6.39,0,*54
1508810533.45,22204,8.88,73072.0,-5.55,-6.47,-6.39,0,*5A
1508810534.65,22205,8.81,73070.0,-5.55,-6.39,-6.47,0,*5B
1508810535.88,22206,8.81,73066.3,-5.57,-6.51,-6.43,0,*50
1508810537.07,22207,8.88,73072.3,-5.55,-6.39,-6.39,0,*50
1508810538.29,22208,8.88,73074.0,-5.57,-6.43,-6.43,0,*5D
1508810539.49,22209,8.88,73064.5,-5.55,-6.39,-6.47,0,*57
1508810540.69,22210,8.81,73086.0,-5.55,-6.59,-6.51,0,*5E
1508810541.93,22211,8.88,73106.8,-5.57,-6.63,-6.51,0,*54
1508810543.16,22212,8.88,73100.3,-5.57,-6.43,-6.43,0,*56
1508810544.35,22213,8.81,73096.8,-5.55,-6.39,-6.47,0,*5C
1508810545.58,22214,8.81,73086.5,-5.53,-6.39,-6.51,0,*5A
1508810546.81,22215,8.88,73088.3,-5.53,-6.47,-6.51,0,*52
1508810548.03,22216,8.81,73110.0,-5.53,-6.39,-6.39,0,*56
1508810549.25,22217,8.81,73110.3,-5.53,-6.39,-6.39,0,*57
1508810550.47,22218,8.81,73090.8,-5.53,-6.47,-6.39,0,*51
1508810551.69,22219,8.81,73022.8,-5.53,-6.47,-6.39,0,*50
1508810552.93,22220,8.88,73034.3,-5.53,-6.51,-6.51,0,*53
1508810554.16,22221,8.81,73040.8,-5.53,-6.51,-6.51,0,*52
1508810555.39,22222,8.88,73080.0,-5.53,-6.59,-6.59,0,*51
1508810556.62,22223,8.81,73066.8,-5.53,-6.59,-6.59,0,*50
1508810557.82,22224,8.88,73088.3,-5.51,-6.55,-6.47,0,*56
1508810559.04,22225,8.81,73090.0,-5.53,-6.47,-6.47,0,*56
1508810560.27,22226,8.81,73062.0,-5.51,-6.55,-6.63,0,*52
1508810561.5,22227,8.81,73016.0,-5.53,-6.51,-6.59,0,*5C
1508810562.73,22228,8.81,73066.3,-5.53,-6.77,-6.85,0,*56
1508810564.0,22229,8.81,73050.8,-5.53,-6.63,-6.63,0,*5A
1508810565.22,22230,8.88,73040.3,-5.53,-6.47,-6.59,0,*5D
1508810566.45,22231,8.81,73050.5,-5.53,-6.59,-6.59,0,*53
1508810567.65,22232,8.88,73052.8,-5.55,-6.51,-6.59,0,*5E
1508810568.85,22233,8.81,73056.0,-5.55,-6.59,-6.59,0,*57
1508810570.08,22234,8.81,73066.5,-5.53,-6.51,-6.59,0,*5E
1508810571.29,22235,8.88,73064.3,-5.55,-6.51,-6.51,0,*51
1508810572.51,22236,8.88,73072.8,-5.57,-6.43,-6.43,0,*50
1508810573.74,22237,8.88,73076.3,-5.53,-6.47,-6.47,0,*55
1508810574.96,22238,8.81,73052.8,-5.53,-6.47,-6.47,0,*5A
1508810576.19,22239,8.81,73078.0,-5.53,-6.47,-6.47,0,*5B
1508810577.42,22240,8.81,73058.0,-5.53,-6.47,-6.47,0,*55
1508810578.62,22241,8.81,73064.5,-5.55,-6.51,-6.47,0,*55
1508810579.85,22242,8.88,73096.3,-5.53,-6.59,-6.51,0,*5F
1508810581.08,22243,8.88,73058.8,-5.53,-6.51,-6.59,0,*5E
1508810582.31,22244,8.81,73060.3,-5.53,-6.59,-6.51,0,*59
1508810583.53,22245,8.81,73072.8,-5.57,-6.55,-6.43,0,*53
1508810584.72,22246,8.81,73076.3,-5.55,-6.39,-6.39,0,*55
1508810585.92,22247,8.81,73072.8,-5.55,-6.47,-6.47,0,*54
1508810587.15,22248,8.81,73090.8,-5.57,-6.55,-6.55,0,*59
1508810588.34,22249,8.88,73088.8,-5.55,-6.47,-6.39,0,*53
1508810589.54,22250,8.88,73082.0,-5.55,-6.51,-6.59,0,*5A
1508810590.79,22251,8.81,73090.8,-5.57,-6.55,-6.63,0,*54
1508810591.99,22252,8.88,73088.5,-5.55,-6.51,-6.59,0,*58
1508810593.22,22253,8.81,73096.8,-5.55,-6.59,-6.63,0,*58
1508810594.48,22254,8.81,73090.0,-5.57,-6.63,-6.63,0,*54
1508810595.69,22255,8.88,73092.3,-5.55,-6.51,-6.59,0,*5F
1508810596.89,22256,8.88,73098.3,-5.55,-6.51,-6.47,0,*53
1508810598.09,22257,8.81,73086.8,-5.55,-6.59,-6.51,0,*5D
1508810599.29,22258,8.88,73084.8,-5.55,-6.59,-6.59,0,*5A
1508810600.49,22259,8.81,73074.3,-5.55,-6.51,-6.51,0,*5B
1508810601.71,22260,8.81,73076.8,-5.55,-6.73,-6.63,0,*50
1508810602.91,22261,8.88,73090.3,-5.55,-6.51,-6.59,0,*58
1508810604.11,22262,8.81,73088.8,-5.55,-6.51,-6.51,0,*53
1508810605.34,22263,8.81,73094.3,-5.55,-6.59,-6.63,0,*5B
1508810606.58,22264,8.81,73088.0,-5.55,-6.63,-6.63,0,*55
1508810607.8,22265,8.81,73086.8,-5.55,-6.59,-6.63,0,*5D
1508810609.03,22266,8.81,73082.3,-5.55,-6.59,-6.63,0,*5E
1508810610.27,22267,8.88,73098.8,-5.57,-6.63,-6.55,0,*51
1508810611.47,22268,8.81,73092.3,-5.55,-6.51,-6.39,0,*57
1508810612.67,22269,8.81,73090.5,-5.55,-6.55,-6.55,0,*58
1508810613.87,22270,8.81,73090.0,-5.55,-6.59,-6.51,0,*58
1508810615.06,22271,8.81,73090.8,-5.55,-6.73,-6.73,0,*51
1508810616.26,22272,8.81,73082.0,-5.55,-6.77,-6.73,0,*56
1508810617.5,22273,8.88,73072.8,-5.55,-6.63,-6.63,0,*53
1508810618.74,22274,8.81,73058.5,-5.57,-6.63,-6.69,0,*5C
1508810619.94,22275,8.81,73058.5,-5.55,-6.51,-6.51,0,*55
1508810621.14,22276,8.81,73070.8,-5.55,-6.51,-6.59,0,*5E
1508810622.36,22277,8.88,73074.3,-5.55,-6.59,-6.63,0,*5E
1508810623.58,22278,8.81,73066.5,-5.57,-6.55,-6.69,0,*55
1508810624.8,22279,8.81,73072.5,-5.55,-6.63,-6.85,0,*51
1508810626.0,22280,8.81,73064.8,-5.55,-6.77,-6.85,0,*52
1508810627.25,22281,8.81,73090.0,-5.57,-6.81,-6.93,0,*5F
1508810628.44,22282,8.88,73090.0,-5.55,-6.89,-6.89,0,*5D
1508810629.69,22283,8.81,73074.5,-5.55,-7.01,-7.01,0,*5C
1508810630.88,22284,8.81,73070.5,-5.55,-6.85,-6.85,0,*5B
1508810632.1,22285,8.81,73082.5,-5.57,-6.69,-6.77,0,*57
1508810633.34,22286,8.88,73072.8,-5.55,-6.63,-6.63,0,*59
1508810634.56,22287,8.81,73078.5,-5.55,-6.73,-6.63,0,*59
1508810635.8,22288,8.81,73082.8,-5.57,-6.69,-6.63,0,*5F
1508810637.0,22289,8.81,73078.3,-5.55,-6.73,-6.77,0,*52
1508810638.19,22290,8.88,73082.8,-5.55,-6.85,-6.85,0,*5E
1508810639.39,22291,8.81,73086.8,-5.55,-6.77,-6.89,0,*5E
1508810640.59,22292,8.81,73078.3,-5.55,-6.89,-6.89,0,*5C
1508810641.78,22293,8.81,73074.0,-5.55,-6.77,-6.89,0,*5C
1508810642.98,22294,8.81,73088.3,-5.55,-6.77,-6.89,0,*5B
1508810644.2,22295,8.81,73086.8,-5.57,-6.89,-6.89,0,*59
1508810645.43,22296,8.81,73086.0,-5.57,-6.77,-6.69,0,*55
1508810646.62,22297,8.88,73092.0,-5.55,-6.51,-6.39,0,*57
1508810647.83,22298,8.81,73088.0,-5.55,-6.51,-6.51,0,*56
1508810649.05,22299,8.81,73088.0,-5.57,-6.55,-6.51,0,*51
1508810650.3,22300,8.81,73090.3,-5.57,-6.55,-6.63,0,*51
1508810651.5,22301,8.81,73084.5,-5.55,-6.59,-6.59,0,*57
1508810652.7,22302,8.81,73072.3,-5.55,-6.59,-6.59,0,*54
1508810653.91,22303,8.81,73086.5,-5.57,-6.69,-6.69,0,*57
1508810655.16,22304,8.81,73076.5,-5.57,-6.63,-6.51,0,*51
1508810656.36,22305,8.81,73094.3,-5.55,-6.59,-6.59,0,*53
1508810657.58,22306,8.81,73094.5,-5.57,-6.77,-6.77,0,*52
1508810658.8,22307,8.81,73102.3,-5.57,-6.69,-6.69,0,*53
1508810660.01,22308,8.81,73098.3,-5.57,-6.69,-6.69,0,*5C
1508810661.23,22309,8.81,73104.0,-5.57,-6.69,-6.69,0,*5D
1508810662.44,22310,8.81,73088.0,-5.57,-6.69,-6.77,0,*5A
1508810663.66,22311,8.88,73096.8,-5.57,-6.69,-6.69,0,*54
1508810664.88,22312,8.81,73092.3,-5.57,-6.55,-6.55,0,*57
1508810666.13,22313,8.81,73098.5,-5.57,-6.63,-6.55,0,*53
1508810667.35,22314,8.88,73102.8,-5.57,-6.55,-6.55,0,*51
1508810668.57,22315,8.81,73090.0,-5.57,-6.69,-6.69,0,*50
1508810669.78,22316,8.81,73104.3,-5.57,-6.69,-6.69,0,*53
1508810671.02,22317,8.81,73098.5,-5.57,-6.63,-6.55,0,*57
1508810672.25,22318,8.81,73102.5,-5.61,-6.59,-6.55,0,*54
1508810673.48,22319,8.81,73102.3,-5.57,-6.55,-6.55,0,*5C
1508810674.7,22320,8.81,73106.8,-5.57,-6.55,-6.55,0,*56
1508810675.95,22321,8.81,73096.3,-5.57,-6.55,-6.63,0,*52
1508810677.18,22322,8.81,73088.8,-5.57,-6.55,-6.55,0,*54
1508810678.4,22323,8.81,73084.3,-5.57,-6.55,-6.51,0,*51
1508810679.65,22324,8.81,73096.8,-5.57,-6.63,-6.51,0,*53
1508810680.87,22325,8.81,73090.5,-5.57,-6.55,-6.51,0,*57
1508810682.1,22326,8.81,73098.5,-5.57,-6.55,-6.55,0,*50
1508810683.33,22327,8.81,73096.0,-5.57,-6.55,-6.51,0,*55
1508810684.53,22328,8.81,73090.0,-5.55,-6.51,-6.47,0,*5B
1508810685.75,22329,8.81,73092.8,-5.57,-6.55,-6.69,0,*50
1508810686.99,22330,8.81,73098.0,-5.57,-6.63,-6.69,0,*5D
1508810688.22,22331,8.81,73092.0,-5.61,-6.85,-6.81,0,*57
1508810689.45,22332,8.81,73096.8,-5.61,-6.85,-6.81,0,*54
1508810690.67,22333,8.81,73094.8,-5.61,-6.85,-6.85,0,*51
1508810691.88,22334,8.81,73080.8,-5.63,-6.81,-6.81,0,*54
1508810693.13,22335,8.81,73084.3,-5.61,-6.81,-6.93,0,*54
1508810694.38,22336,8.81,73080.3,-5.63,-6.93,-6.97,0,*52
1508810695.66,22337,8.81,73076.3,-5.61,-6.93,-7.05,0,*5B
1508810696.91,22338,8.81,73082.8,-5.63,-6.97,-6.97,0,*58
1508810698.18,22339,8.81,73080.0,-5.61,-6.97,-6.93,0,*5F
1508810699.46,22340,8.81,73086.5,-5.61,-6.93,-6.97,0,*51
1508810700.71,22341,8.81,73084.8,-5.63,-6.97,-6.97,0,*56
1508810701.94,22342,8.81,73086.0,-5.63,-7.05,-7.11,0,*50
1508810703.15,22343,8.81,73084.3,-5.63,-7.11,-7.19,0,*5C
1508810704.39,22344,8.81,73082.8,-5.63,-6.97,-7.05,0,*59
1508810705.64,22345,8.81,73086.8,-5.63,-6.97,-6.97,0,*52
1508810706.86,22346,8.81,73086.5,-5.63,-7.11,-7.05,0,*54
1508810708.07,22347,8.81,73078.0,-5.63,-7.19,-7.19,0,*50
1508810709.27,22348,8.81,73084.3,-5.63,-7.19,-7.23,0,*56
1508810710.48,22349,8.81,73086.5,-5.63,-7.19,-7.23,0,*57
1508810711.69,22350,8.81,73096.5,-5.63,-7.19,-7.23,0,*5F
1508810712.89,22351,8.81,73094.5,-5.63,-7.11,-7.19,0,*5F
1508810714.1,22352,8.81,73096.5,-5.63,-7.19,-7.23,0,*5D
1508810715.33,22353,8.81,73102.3,-5.65,-7.23,-7.23,0,*53
1508810716.57,22354,8.81,73102.3,-5.65,-7.11,-7.01,0,*55
1508810717.84,22355,8.81,73106.8,-5.65,-7.01,-7.01,0,*55
1508810719.07,22356,8.81,73092.0,-5.65,-7.11,-7.23,0,*57
1508810720.3,22357,8.81,73108.3,-5.65,-7.23,-7.15,0,*52
1508810721.57,22358,8.81,73094.3,-5.65,-7.01,-7.01,0,*58
1508810722.82,22359,8.81,73088.3,-5.65,-7.01,-7.11,0,*58
1508810724.06,22360,8.81,73066.5,-5.65,-6.89,-6.97,0,*5C
1508810725.29,22361,8.81,73070.0,-5.65,-7.11,-7.11,0,*52
1508810726.52,22362,8.81,73072.0,-5.65,-7.11,-7.23,0,*50
1508810727.75,22363,8.81,73070.3,-5.65,-7.11,-7.15,0,*54
1508810728.98,22364,8.81,73060.8,-5.65,-7.11,-7.15,0,*53
1508810730.2,22365,8.81,73072.3,-5.65,-7.23,-7.23,0,*56
1508810731.43,22366,8.81,73050.3,-5.65,-7.23,-7.23,0,*55
1508810732.63,22367,8.81,73046.0,-5.67,-7.15,-7.15,0,*56
1508810733.83,22368,8.81,73058.5,-5.67,-7.11,-7.11,0,*59
1508810735.1,22369,8.81,73058.8,-5.65,-7.01,-7.01,0,*5A
1508810736.35,22370,8.81,73044.3,-5.65,-6.97,-6.89,0,*5D
1508810737.57,22371,8.81,73036.3,-5.67,-6.89,-6.97,0,*5E
1508810738.78,22372,8.81,73046.0,-5.65,-6.85,-6.85,0,*50
1508810740.02,22373,8.81,73042.5,-5.67,-6.63,-6.63,0,*53
1508810741.25,22374,8.81,73032.8,-5.67,-6.59,-6.63,0,*5D
1508810742.45,22375,8.81,73030.0,-5.67,-6.59,-6.59,0,*55
1508810743.68,22376,8.81,73026.3,-5.65,-6.63,-6.73,0,*55
1508810744.9,22377,8.81,73062.3,-5.65,-6.85,-6.85,0,*55
1508810746.15,22378,8.81,73034.3,-5.67,-6.63,-6.63,0,*58
1508810747.37,22379,8.81,73032.8,-5.67,-6.59,-6.63,0,*50
1508810748.61,22380,8.81,73064.3,-5.65,-6.73,-6.63,0,*5C
1508810749.83,22381,8.81,73036.0,-5.65,-6.73,-6.73,0,*5C
1508810751.07,22382,8.81,73070.8,-5.65,-6.63,-6.73,0,*5E
1508810752.34,22383,8.81,73068.5,-5.65,-6.63,-6.63,0,*5E
1508810753.58,22384,8.81,73070.5,-5.65,-6.59,-6.63,0,*50
1508810754.81,22385,8.81,73080.3,-5.65,-6.59,-6.59,0,*58
1508810756.04,22386,8.81,73080.0,-5.65,-6.51,-6.51,0,*5B
1508810757.27,22387,8.88,73092.8,-5.65,-6.51,-6.51,0,*5A
1508810758.49,22388,8.81,73086.3,-5.65,-6.59,-6.51,0,*5D
1508810759.72,22389,8.81,73082.0,-5.65,-6.51,-6.51,0,*54
1508810760.94,22390,8.81,73086.0,-5.65,-6.59,-6.51,0,*54
1508810762.17,22391,8.81,73082.3,-5.65,-6.59,-6.59,0,*5D
1508810763.41,22392,8.81,73088.0,-5.65,-6.59,-6.63,0,*57
1508810764.65,22393,8.81,73074.8,-5.65,-6.63,-6.73,0,*5E
1508810765.9,22394,8.81,73068.3,-5.65,-6.63,-6.51,0,*59
1508810767.14,22395,8.81,73082.3,-5.65,-6.63,-6.73,0,*58
1508810768.36,22396,8.81,73078.3,-5.65,-6.85,-6.89,0,*56
1508810769.58,22397,8.81,73072.3,-5.65,-6.77,-6.85,0,*56
1508810770.78,22398,8.81,73072.0,-5.63,-6.69,-6.59,0,*51
1508810771.99,22399,8.81,73084.8,-5.67,-6.63,-6.73,0,*56
1508810773.21,22400,8.81,73078.0,-5.65,-6.73,-6.77,0,*56
1508810774.43,22401,8.81,73072.0,-5.65,-6.59,-6.51,0,*5B
1508810775.66,22402,8.81,73108.0,-5.65,-6.59,-6.51,0,*58
1508810776.9,22403,8.81,73054.5,-5.67,-6.63,-6.63,0,*53
1508810778.12,22404,8.81,73094.8,-5.65,-6.73,-6.73,0,*56
1508810779.33,22405,8.81,73076.0,-5.67,-6.63,-6.73,0,*54
1508810780.55,22406,8.81,73082.8,-5.65,-6.77,-6.77,0,*54
1508810781.75,22407,8.81,73078.8,-5.63,-6.69,-6.81,0,*55
1508810783.0,22408,8.81,73082.0,-5.65,-6.63,-6.59,0,*53
1508810784.23,22409,8.81,73084.0,-5.65,-6.51,-6.51,0,*5B
1508810785.45,22410,8.81,73090.8,-5.65,-6.51,-6.47,0,*54
1508810786.67,22411,8.81,73086.8,-5.65,-6.47,-6.47,0,*52
1508810787.87,22412,8.81,73090.3,-5.67,-6.47,-6.47,0,*53
1508810789.09,22413,8.81,73102.0,-5.65,-6.59,-6.51,0,*58
1508810790.32,22414,8.81,73076.0,-5.65,-6.59,-6.59,0,*57
1508810791.52,22415,8.81,73084.0,-5.67,-6.51,-6.51,0,*54
1508810792.75,22416,8.81,73086.8,-5.65,-6.51,-6.47,0,*52
1508810793.98,22417,8.81,73080.5,-5.65,-6.51,-6.47,0,*53
1508810795.2,22418,8.81,73084.8,-5.65,-6.51,-6.47,0,*5C
1508810796.43,22419,8.81,73086.0,-5.65,-6.51,-6.47,0,*5D
1508810797.65,22420,8.81,73086.5,-5.65,-6.47,-6.47,0,*50
1508810798.85,22421,8.81,73084.8,-5.67,-6.43,-6.43,0,*53
1508810800.07,22422,8.81,73084.8,-5.65,-6.47,-6.35,0,*57
1508810801.27,22423,8.81,73090.0,-5.67,-6.47,-6.35,0,*54
1508810802.46,22424,8.81,73092.5,-5.67,-6.47,-6.43,0,*52
1508810803.66,22425,8.81,73092.3,-5.67,-6.35,-6.31,0,*53
1508810804.89,22426,8.81,73088.3,-5.63,-6.39,-6.27,0,*5F
1508810806.11,22427,8.81,73086.5,-5.63,-6.39,-6.27,0,*5E
1508810807.31,22428,8.81,73084.5,-5.63,-6.43,-6.43,0,*5E
1508810808.53,22429,8.81,73086.0,-5.65,-6.43,-6.35,0,*58
1508810809.75,22430,8.81,73088.3,-5.65,-6.47,-6.43,0,*55
1508810810.95,22431,8.81,73084.3,-5.63,-6.39,-6.31,0,*5E
1508810812.16,22432,8.81,73084.8,-5.63,-6.43,-6.43,0,*55
1508810813.36,22433,8.81,73086.5,-5.63,-6.39,-6.31,0,*5C
1508810814.58,22434,8.81,73080.8,-5.65,-6.43,-6.47,0,*51
1508810815.78,22435,8.81,73084.8,-5.63,-6.43,-6.39,0,*5F
1508810817.0,22436,8.81,73086.8,-5.65,-6.43,-6.47,0,*53
1508810818.22,22437,8.81,73084.3,-5.65,-6.47,-6.47,0,*56
1508810819.45,22438,8.81,73090.5,-5.65,-6.47,-6.47,0,*59
1508810820.67,22439,8.81,73098.8,-5.65,-6.51,-6.59,0,*50
1508810821.87,22440,8.81,73082.3,-5.63,-6.55,-6.55,0,*50
1508810823.08,22441,8.81,73082.3,-5.63,-6.59,-6.59,0,*51
1508810824.28,22442,8.81,73086.3,-5.63,-6.55,-6.59,0,*5E
1508810825.5,22443,8.81,73088.0,-5.61,-6.59,-6.69,0,*52
1508810826.7,22444,8.81,73092.8,-5.63,-6.59,-6.69,0,*57
1508810827.9,22445,8.81,73084.0,-5.63,-6.55,-6.59,0,*59
1508810829.1,22446,8.81,73092.5,-5.63,-6.47,-6.59,0,*59
1508810830.35,22447,8.81,73088.5,-5.65,-6.59,-6.63,0,*58
1508810831.55,22448,8.81,73088.8,-5.63,-6.55,-6.55,0,*58
1508810832.75,22449,8.81,73096.3,-5.63,-6.55,-6.55,0,*59
1508810833.95,22450,8.81,73090.8,-5.63,-6.47,-6.47,0,*51
1508810835.15,22451,8.81,73088.3,-5.63,-6.47,-6.47,0,*50
1508810836.35,22452,8.81,73090.0,-5.63,-6.47,-6.47,0,*53
1508810837.55,22453,8.81,73090.0,-5.63,-6.47,-6.47,0,*52
1508810838.75,22454,8.81,73086.8,-5.63,-6.47,-6.43,0,*51
1508810839.94,22455,8.81,73090.0,-5.63,-6.47,-6.39,0,*5D
1508810841.15,22456,8.81,73082.5,-5.63,-6.43,-6.43,0,*57
1508810842.35,22457,8.81,73086.5,-5.63,-6.43,-6.43,0,*56
1508810843.57,22458,8.81,73078.0,-5.65,-6.73,-6.51,0,*5F
1508810844.81,22459,8.81,73078.8,-5.65,-6.73,-6.63,0,*5F
1508810846.04,22460,8.81,73082.0,-5.65,-6.59,-6.51,0,*5C
1508810847.24,22461,8.81,73078.3,-5.63,-6.47,-6.55,0,*50
1508810848.44,22462,8.81,73086.0,-5.63,-6.47,-6.47,0,*50
1508810849.64,22463,8.81,73090.5,-5.63,-6.55,-6.47,0,*52
1508810850.83,22464,8.81,73070.8,-5.63,-6.69,-6.69,0,*56
1508810852.02,22465,8.81,73068.5,-5.63,-6.69,-6.69,0,*57
1508810853.24,22466,8.81,73096.5,-5.61,-6.69,-6.69,0,*56
1508810854.44,22467,8.81,73094.0,-5.63,-6.59,-6.47,0,*5A
1508810855.64,22468,8.81,73080.3,-5.63,-6.47,-6.47,0,*5A
1508810856.83,22469,8.81,73074.8,-5.63,-6.69,-6.69,0,*5B
1508810858.02,22470,8.81,73072.3,-5.63,-6.69,-6.69,0,*53
1508810859.22,22471,8.81,73078.3,-5.63,-6.69,-6.59,0,*51
1508810860.41,22472,8.81,73082.3,-5.63,-6.59,-6.69,0,*52
1508810861.61,22473,8.81,73076.8,-5.63,-6.59,-6.69,0,*53
1508810862.8,22474,8.81,73072.5,-5.63,-6.69,-6.69,0,*57
1508810864.02,22475,8.81,73096.3,-5.65,-6.73,-6.77,0,*54
1508810865.26,22476,8.81,73086.8,-5.65,-6.63,-6.59,0,*5A
1508810866.5,22477,8.81,73092.5,-5.65,-6.63,-6.51,0,*53
1508810867.73,22478,8.81,73090.0,-5.65,-6.59,-6.51,0,*55
1508810868.96,22479,8.81,73086.3,-5.65,-6.51,-6.59,0,*54
1508810870.2,22480,8.81,73086.5,-5.65,-6.73,-6.63,0,*5B
1508810871.45,22481,8.81,73084.3,-5.65,-6.77,-6.63,0,*5E
1508810872.7,22482,8.81,73086.5,-5.65,-6.73,-6.63,0,*59
1508810873.96,22483,8.81,73098.8,-5.65,-6.63,-6.63,0,*59
1508810875.23,22484,8.81,73100.8,-5.65,-6.63,-6.63,0,*5E
1508810876.47,22485,8.81,73084.5,-5.65,-6.63,-6.73,0,*5E
1508810877.69,22486,8.81,73084.8,-5.65,-6.85,-6.77,0,*51
1508810878.9,22487,8.81,73088.0,-5.63,-6.81,-6.81,0,*5B
1508810880.14,22488,8.81,73090.3,-5.65,-6.63,-6.73,0,*53
1508810881.38,22489,8.81,73078.8,-5.65,-6.63,-6.59,0,*5A
1508810882.62,22490,8.81,73084.5,-5.65,-6.63,-6.59,0,*52
1508810883.84,22491,8.81,73090.5,-5.67,-6.63,-6.51,0,*59
1508810885.06,22492,8.81,73082.3,-5.65,-6.59,-6.51,0,*51
1508810886.29,22493,8.81,73080.3,-5.65,-6.77,-6.85,0,*55
1508810887.51,22494,8.81,73078.3,-5.65,-6.77,-6.85,0,*52
1508810888.73,22495,8.81,73090.3,-5.65,-6.85,-6.77,0,*53
1508810889.94,22496,8.81,73086.5,-5.63,-6.81,-6.81,0,*5B
1508810891.14,22497,8.81,73096.3,-5.63,-6.73,-6.81,0,*57
1508810892.36,22498,8.81,73086.8,-5.65,-6.77,-6.85,0,*5E
1508810893.56,22499,8.81,73076.0,-5.67,-6.77,-6.73,0,*54
1508810894.78,22500,8.81,73080.3,-5.65,-6.85,-6.85,0,*53
1508810896.02,22501,8.81,73088.8,-5.67,-6.63,-6.63,0,*50
1508810897.25,22502,8.81,73094.5,-5.65,-6.51,-6.51,0,*51
1508810898.48,22503,8.81,73084.8,-5.65,-6.51,-6.51,0,*50
1508810899.7,22504,8.81,73090.5,-5.65,-6.59,-6.51,0,*5F
1508810900.9,22505,8.81,73084.3,-5.67,-6.47,-6.43,0,*50
1508810902.09,22506,8.81,73082.3,-5.67,-6.47,-6.47,0,*57
1508810903.32,22507,8.81,73084.8,-5.65,-6.59,-6.51,0,*5C
1508810904.52,22508,8.81,73096.3,-5.67,-6.51,-6.51,0,*59
1508810905.74,22509,8.81,73098.0,-5.65,-6.59,-6.59,0,*5A
1508810906.97,22510,8.81,73108.0,-5.65,-6.51,-6.51,0,*52
1508810908.2,22511,8.81,73082.5,-5.65,-6.51,-6.47,0,*54
1508810909.42,22512,8.81,73080.5,-5.65,-6.59,-6.51,0,*58
1508810910.65,22513,8.81,73076.5,-5.65,-6.77,-6.77,0,*51
1508810911.89,22514,8.81,73082.0,-5.65,-6.63,-6.51,0,*57